When you browse on this site, cookies collect data to enhance your experience and personalize the content and advertising you see.
Visit our Privacy Policy to learn more. By continuing to use the site, you agree to this use of cookies and data.
  • Em Portugal
  • Lista de países
  • Para 7 dias
  • Temperatura da água
  • Mapa do tempo
  • Widgets de tempo
  • user-avatar
    Iniciar Sessão

    Previsão horária em Veleshino

    Hoje, 20 Setembro, Sexta-feira

    Tempo Temperatura Precipitação Vento Pressão Humidade
    00:00 +4°C° 0 mm 3 m/s 742 mmHg 92%
    01:00 +4°C° 0 mm 3 m/s 742 mmHg 93%
    02:00 +3°C° 0 mm 3 m/s 743 mmHg 95%
    03:00 +3°C° 0 mm 4 m/s 742 mmHg 94%
    04:00 +4°C° 0 mm 4 m/s 742 mmHg 94%
    05:00 +4°C° 0 mm 4 m/s 742 mmHg 93%
    06:00 +3°C° 0.1 mm 5 m/s 742 mmHg 90%
    07:00 +5°C° 0.1 mm 5 m/s 742 mmHg 87%
    08:00 +6°C° 0 mm 5 m/s 743 mmHg 80%
    09:00 +5°C° 0.1 mm 6 m/s 743 mmHg 76%
    10:00 +7°C° 0.1 mm 6 m/s 743 mmHg 71%
    11:00 +6°C° 0.1 mm 7 m/s 743 mmHg 66%
    12:00 +8°C° 0.1 mm 6 m/s 743 mmHg 65%
    13:00 +8°C° 0.1 mm 6 m/s 743 mmHg 64%
    14:00 +8°C° 0.1 mm 6 m/s 743 mmHg 64%
    15:00 +8°C° 0.1 mm 5 m/s 743 mmHg 64%
    16:00 +7°C° 0.1 mm 4 m/s 744 mmHg 64%
    17:00 +8°C° 0.1 mm 3 m/s 744 mmHg 65%
    18:00 +7°C° 0 mm 3 m/s 744 mmHg 69%
    19:00 +4°C° 0 mm 3 m/s 745 mmHg 74%
    20:00 +3°C° 0 mm 3 m/s 745 mmHg 79%
    21:00 +2°C° 0 mm 3 m/s 745 mmHg 80%
    22:00 +2°C° 0 mm 3 m/s 745 mmHg 81%
    23:00 +2°C° 0 mm 2 m/s 745 mmHg 82%

    Amanhã, 21 Setembro, Sábado

    Tempo Temperatura Precipitação Vento Pressão Humidade
    00:00 +2°C° 0 mm 2 m/s 745 mmHg 82%
    01:00 +2°C° 0 mm 2 m/s 746 mmHg 82%
    02:00 +2°C° 0 mm 2 m/s 746 mmHg 82%
    03:00 +2°C° 0 mm 2 m/s 746 mmHg 82%
    04:00 +3°C° 0 mm 2 m/s 745 mmHg 82%
    05:00 +3°C° 0 mm 2 m/s 745 mmHg 82%
    06:00 +3°C° 0 mm 3 m/s 745 mmHg 79%
    07:00 +4°C° 0 mm 3 m/s 745 mmHg 75%
    08:00 +5°C° 0 mm 3 m/s 745 mmHg 71%
    09:00 +5°C° 0.2 mm 4 m/s 744 mmHg 75%
    10:00 +5°C° 0.2 mm 5 m/s 744 mmHg 78%
    11:00 +5°C° 0.2 mm 5 m/s 743 mmHg 82%
    12:00 +5°C° 0.7 mm 5 m/s 743 mmHg 86%
    13:00 +6°C° 0.7 mm 5 m/s 743 mmHg 91%
    14:00 +6°C° 0.7 mm 4 m/s 742 mmHg 95%
    15:00 +7°C° 0.4 mm 4 m/s 742 mmHg 95%
    16:00 +10°C° 0.4 mm 4 m/s 742 mmHg 95%
    17:00 +11°C° 0.4 mm 4 m/s 741 mmHg 95%
    18:00 +10°C° 0.2 mm 5 m/s 741 mmHg 94%
    19:00 +10°C° 0.2 mm 5 m/s 741 mmHg 93%
    20:00 +12°C° 0.2 mm 5 m/s 741 mmHg 93%
    21:00 +12°C° 0.1 mm 5 m/s 741 mmHg 93%
    22:00 +10°C° 0.1 mm 6 m/s 741 mmHg 93%
    23:00 +10°C° 0.1 mm 6 m/s 741 mmHg 93%

    Depois de amanhã, 22 Setembro, Domingo

    Tempo Temperatura Precipitação Vento Pressão Humidade
    00:00 +10°C° 0 mm 6 m/s 741 mmHg 94%
    01:00 +10°C° 0 mm 6 m/s 741 mmHg 94%
    02:00 +9°C° 0 mm 6 m/s 741 mmHg 95%
    03:00 +9°C° 0 mm 6 m/s 741 mmHg 94%
    04:00 +9°C° 0 mm 6 m/s 741 mmHg 94%
    05:00 +9°C° 0 mm 6 m/s 741 mmHg 93%
    06:00 +9°C° 0 mm 6 m/s 741 mmHg 91%
    07:00 +9°C° 0 mm 6 m/s 741 mmHg 90%
    08:00 +10°C° 0 mm 6 m/s 741 mmHg 88%
    09:00 +11°C° 0 mm 6 m/s 741 mmHg 83%
    10:00 +13°C° 0 mm 6 m/s 741 mmHg 78%
    11:00 +14°C° 0 mm 6 m/s 741 mmHg 73%
    12:00 +15°C° 0 mm 6 m/s 741 mmHg 71%
    13:00 +16°C° 0 mm 7 m/s 741 mmHg 69%
    14:00 +17°C° 0 mm 7 m/s 741 mmHg 67%
    15:00 +16°C° 0 mm 7 m/s 741 mmHg 70%
    16:00 +15°C° 0 mm 6 m/s 740 mmHg 73%
    17:00 +14°C° 0 mm 5 m/s 740 mmHg 75%
    18:00 +13°C° 0 mm 5 m/s 741 mmHg 78%
    19:00 +12°C° 0 mm 4 m/s 741 mmHg 81%
    20:00 +10°C° 0 mm 3 m/s 742 mmHg 84%
    21:00 +9°C° 0 mm 3 m/s 742 mmHg 81%
    22:00 +8°C° 0 mm 3 m/s 743 mmHg 77%
    23:00 +5°C° 0 mm 3 m/s 743 mmHg 74%

    23 Setembro, Segunda-feira

    Tempo Temperatura Precipitação Vento Pressão Humidade
    00:00 +5°C° 0 mm 2 m/s 744 mmHg 75%
    01:00 +5°C° 0 mm 2 m/s 744 mmHg 76%
    02:00 +4°C° 0 mm 2 m/s 744 mmHg 77%
    03:00 +3°C° 0 mm 2 m/s 745 mmHg 79%
    04:00 +3°C° 0 mm 2 m/s 745 mmHg 81%
    05:00 +2°C° 0 mm 2 m/s 745 mmHg 83%
    06:00 +3°C° 0 mm 2 m/s 745 mmHg 80%
    07:00 +3°C° 0 mm 3 m/s 745 mmHg 77%
    08:00 +3°C° 0 mm 3 m/s 745 mmHg 74%
    09:00 +5°C° 0 mm 3 m/s 745 mmHg 67%
    10:00 +7°C° 0 mm 3 m/s 746 mmHg 60%
    11:00 +9°C° 0 mm 3 m/s 746 mmHg 53%
    12:00 +9°C° 0 mm 3 m/s 746 mmHg 50%
    13:00 +10°C° 0 mm 3 m/s 745 mmHg 47%
    14:00 +10°C° 0 mm 3 m/s 745 mmHg 45%
    15:00 +10°C° 0 mm 2 m/s 744 mmHg 48%
    16:00 +10°C° 0 mm 2 m/s 744 mmHg 52%
    17:00 +9°C° 0 mm 2 m/s 744 mmHg 55%
    18:00 +8°C° 0 mm 2 m/s 744 mmHg 57%
    19:00 +6°C° 0 mm 2 m/s 744 mmHg 60%
    20:00 +4°C° 0 mm 3 m/s 744 mmHg 62%
    21:00 +4°C° 0 mm 3 m/s 744 mmHg 63%
    22:00 +3°C° 0 mm 3 m/s 744 mmHg 63%
    23:00 +3°C° 0 mm 3 m/s 744 mmHg 64%

    24 Setembro, Terça-feira

    Tempo Temperatura Precipitação Vento Pressão Humidade
    00:00 +3°C° 0 mm 3 m/s 744 mmHg 65%
    01:00 +3°C° 0 mm 3 m/s 744 mmHg 66%
    02:00 +2°C° 0 mm 3 m/s 744 mmHg 66%
    03:00 +2°C° 0 mm 3 m/s 744 mmHg 68%
    04:00 +2°C° 0 mm 3 m/s 744 mmHg 70%
    05:00 +1°C° 0 mm 3 m/s 743 mmHg 72%
    06:00 +1°C° 0 mm 4 m/s 743 mmHg 70%
    07:00 +3°C° 0 mm 4 m/s 743 mmHg 67%
    08:00 +4°C° 0 mm 4 m/s 743 mmHg 64%
    09:00 +5°C° 0 mm 4 m/s 744 mmHg 60%
    10:00 +7°C° 0 mm 4 m/s 744 mmHg 55%
    11:00 +10°C° 0 mm 4 m/s 744 mmHg 50%
    12:00 +10°C° 0 mm 4 m/s 743 mmHg 49%
    13:00 +11°C° 0 mm 4 m/s 743 mmHg 48%
    14:00 +12°C° 0 mm 4 m/s 743 mmHg 46%
    15:00 +11°C° 0 mm 3 m/s 743 mmHg 50%
    16:00 +10°C° 0 mm 3 m/s 742 mmHg 54%
    17:00 +10°C° 0 mm 2 m/s 742 mmHg 57%
    18:00 +8°C° 0 mm 2 m/s 742 mmHg 60%
    19:00 +7°C° 0 mm 3 m/s 742 mmHg 63%
    20:00 +4°C° 0 mm 3 m/s 742 mmHg 65%
    21:00 +3°C° 0 mm 3 m/s 743 mmHg 67%
    22:00 +3°C° 0 mm 3 m/s 743 mmHg 68%
    23:00 +2°C° 0 mm 3 m/s 743 mmHg 69%

    25 Setembro, Quarta-feira

    Tempo Temperatura Precipitação Vento Pressão Humidade
    00:00 +2°C° 0 mm 3 m/s 743 mmHg 72%
    01:00 +1°C° 0 mm 3 m/s 742 mmHg 74%
    02:00 +1°C° 0 mm 3 m/s 742 mmHg 76%
    03:00 +1°C° 0 mm 3 m/s 742 mmHg 77%
    04:00 0°C° 0 mm 3 m/s 742 mmHg 79%
    05:00 0°C° 0 mm 3 m/s 742 mmHg 80%
    06:00 +1°C° 0 mm 3 m/s 742 mmHg 76%
    07:00 +2°C° 0 mm 3 m/s 743 mmHg 72%
    08:00 +3°C° 0 mm 3 m/s 743 mmHg 68%
    09:00 +5°C° 0 mm 3 m/s 743 mmHg 63%
    10:00 +8°C° 0 mm 3 m/s 743 mmHg 57%
    11:00 +10°C° 0 mm 3 m/s 743 mmHg 51%
    12:00 +10°C° 0 mm 3 m/s 743 mmHg 49%
    13:00 +11°C° 0 mm 3 m/s 743 mmHg 47%
    14:00 +11°C° 0 mm 3 m/s 743 mmHg 45%
    15:00 +12°C° 0 mm 2 m/s 743 mmHg 49%
    16:00 +10°C° 0 mm 2 m/s 743 mmHg 53%
    17:00 +9°C° 0 mm 2 m/s 742 mmHg 57%
    18:00 +8°C° 0 mm 3 m/s 743 mmHg 60%
    19:00 +5°C° 0 mm 3 m/s 743 mmHg 63%
    20:00 +4°C° 0 mm 3 m/s 743 mmHg 67%
    21:00 +3°C° 0 mm 3 m/s 743 mmHg 68%
    22:00 +3°C° 0 mm 3 m/s 743 mmHg 70%
    23:00 +2°C° 0 mm 3 m/s 744 mmHg 72%
    Mostrar mais